Regional Weather Roundup
Issued by NWS Charleston, SC

Current Version | Previous Version | Graphics & Text | Print | Product List | Glossary On
Versions: 1 2 3 4 5 6 7 8 9 10 11 12 13 14 15 16 17 18 19 20 21 22 23 24 25 26 27 28 29 30 31 32 33 34 35 36 37 38 39 40 41 42 43 44 45 46 47 48 49 50
000 ASUS42 KCHS 020127 RWRCHS REGIONAL WEATHER ROUNDUP NATIONAL WEATHER SERVICE CHARLESTON SC 900 PM EDT WED JUL 01 2015 NOTE: "FAIR" INDICATES FEW OR NO CLOUDS BELOW 12,000 FEET WITH NO SIGNIFICANT WEATHER AND/OR OBSTRUCTIONS TO VISIBILITY. NOT ALL STATIONS ARE QUALITY CONTROLLED BY THE NATIONAL WEATHER SERVICE. USE DATA WITH CAUTION...ESPECIALLY DEWPOINT OBSERVATIONS. SCZ027-030-031-034>040-042>050-020200- ...SOUTHEAST SOUTH CAROLINA... CITY SKY/WX TMP DP RH WIND PRES REMARKS N CHARLESTON CLOUDY 81 71 71 SW6 30.00R WATERFRONT PAR N/A 84 74 72 VRB3 29.98R HX 91 MOUNT PLEASANT LGT RAIN 82 73 74 S3 30.00S JOHNS ISLAND FAIR 82 75 78 CALM 30.00S PINOPOLIS NOT AVBL MONCKS CORNER FAIR 79 72 78 CALM 30.00R SUMMERVILLE FAIR 79 73 83 CALM 30.01R BEAUFORT MCAS MOCLDY 83 74 74 CALM 30.00S BEAUFORT ARPT FAIR 81 73 78 CALM 30.00S HILTON HEAD IS MOCLDY 82 75 78 CALM 30.02S WALTERBORO PTCLDY 79 72 78 SW3 30.01S ALLENDALE FAIR 81 73 78 CALM 30.01R ...SOUTHERN MIDLANDS AND PEE DEE... CITY SKY/WX TMP DP RH WIND PRES REMARKS GEORGETOWN NOT AVBL KINGSTREE NOT AVBL ORANGEBURG CLEAR 78 71 79 SW6 30.00R BARNWELL FAIR 81 72 74 CALM 30.02R AIKEN NOT AVBL MANNING FAIR 77 72 83 CALM 29.99R COLUMBIA CLOUDY 81 68 64 W6 29.98R SUMTER PTCLDY 80 71 74 SW5 29.96S FLORENCE PTCLDY 80 73 79 SW5 29.97R MYRTLE BEACH MOCLDY 82 70 65 SW7 30.00S N MYRTLE BEACH MOCLDY 81 70 69 W5 29.98S $$ GAZ063-065-086>088-099>101-113>116-118-119-134>141-150-020200- ...SOUTHEAST GEORGIA... CITY SKY/WX TMP DP RH WIND PRES REMARKS SAVANNAH ARPT CLOUDY 84 71 65 SW5 30.01R HUNTER AAF PTCLDY 84 72 67 SW6 30.00R HX 90 FORT STEWART PTCLDY 85 70 60 SW6 30.00R STATESBORO MOCLDY 80 80 100 CALM 30.01F SYLVANIA PTCLDY 80 76 86 CALM 30.02S CLAXTON FAIR 81 73 78 CALM 30.02R ...CSRA...CENTRAL AND FAR SOUTHEAST GEORGIA... CITY SKY/WX TMP DP RH WIND PRES REMARKS THOMSON MOCLDY 81 72 75 W8 30.08R AUGUSTA-BUSH PTCLDY 80 70 71 SW5 30.00R AUGUSTA-DANIEL PTCLDY 82 69 64 VRB3 30.02R SWAINSBORO FAIR N/A N/A N/A CALM 30.04R VIDALIA PTCLDY 82 70 65 SW5 30.03R EASTMAN TSTM 74 69 82 N5G25 30.09R HAZLEHURST FAIR 84 71 66 CALM 30.03R ALMA CLEAR 83 68 60 W3 30.03S WAYCROSS PTCLDY 84 73 69 SW6 30.04S HX 91 JESUP FAIR 86 70 58 W3 30.03F HX 90 BAXLEY FAIR 84 70 61 CALM 30.03S BRUNSWICK PTCLDY 81 73 78 CALM 30.04R SAINT SIMONS PTCLDY 85 71 63 SW7 30.04R HX 90 $$ SCZ027-028-034-036>038-045-046-048>050-GAZ119-141-020200- ...LAKE AND SUPPLEMENTAL COASTAL OBSERVATIONS... STATION/POSITION TIME TEMP WIND PRES WAVE SWELL AIR SEA DIR/SP/G HT/PER HT/PER/DIR (UTC) (F) (DEG/KT/KT) (MB) (FT/S) (FT/S/D) UPR LAKE MARION NOT AVBL WINYAH BAY 0000 82 220/ 5 1014.0S LAKE MURRAY 0000 83 250/ 9/ 13 1014.6R ACE BASIN NERRS 0000 84 CALM 1016.0S FORT PULASKI 0100 85 84 220/ 3/ 4 1016.9R SAPELO ISLAND 0100 85 230/ 5 1017.0R $$ ANZ835-935-AMZ111-154-330-350-352-354-370-450-454-472-020200- ...C-MAN AND BUOY OBSERVATIONS... STATION/POSITION TIME TEMP WIND PRES WAVE SWELL AIR SEA DIR/SP/G HT/PER HT/PER/DIR (UTC) (F) (DEG/KT/KT) (MB) (FT/S) (FT/S/D) BUOY 41004 0050 82 82 220/ 16/ 17 1015.3S 4/ 6 2/ 8 BUOY 41008 0050 80 79 200/ 10/ 10 1016.8R 2/ 9 2/110/ 9 FOLLY BEACH CMAN 0100 81 220/ 13/ 14 1016.1R CAPERS NEARSHORE 0008 82 220/ 16/ 19 1015.8R FRIPP NEARSHORE 0000 82 190/ 8/ 10 1015.7R STATION/POSITION TIME TEMP WIND PRES WAVE SWELL AIR SEA DIR/SP/G HT/PER HT/PER/DIR (UTC) (F) (DEG/KT/KT) (MB) (FT/S) (FT/S/D) 5E ST. MARYS GA 0021 78 N/A 2/ 9 FRYING PAN BUOY 0050 81 80 230/ 17/ 19 1015.6R 5/ 6 3/140/ 8 BUOY 41025 0050 80 83 220/ 17/ 19 1013.9R 5/ 7 3/180/ 7 CAPE LOOKOUT NC 0100 79 230/ 13/ 18 1014.2R BUOY 41002 0050 82 80 240/ 16/ 19 1018.2R 6/ 7 2/160/ 9 BUOY 41010 0020 83 84 200/ 10/ 12 1019.6R ST AUGUSTINE FL 0100 82 74 190/ 5/ 6 1019.9R $$

USA.gov is the U.S. government's official web portal to all federal, state and local government web resources and services.